SCOUT A DEB, 2702

Orbit data source: Space-Track

SCOUT A DEB, 2702 is space debris in LEO originally from a launch on Thu, 18 Aug 1966 UTC launched from the Air Force Western Test Range (AFWTR). Debris objects in space refer to the collection of defunct objects orbiting the Earth. Examples of debris include non-operational satellites, rocket bodies, and fragments generated from explosions, collisions, or faulty payload assembly.

Loading next visibility...
Identifier
2702, 1966-076D
Orbit
LEO
Country
Flag of USUS
Related business
Manufacturer
Unknown
Mission
Spacecraft
Bus & Motor
Unknown
Mass
Unknown
Launch date (UTC)
1966-08-18 (60 years ago)
Launch vehicle
Unknown
Launch site
Air Force Western Test Range (AFWTR)
Object type
Payload
Rocket body
Debris
Shape & HBR
Unknown shape, 0.1 m
Radar Cross Section
Small (<0.1 m²)

Expand to show TLE details & history
Last TLE update: 23 hours ago

TLE from 23 hours ago
0 SCOUT A DEB
1 02702U 66076D   26120.43155806  .00000123  00000-0  20930-3 0  9992
2 02702  88.5604 264.6236 0088966  51.8967  13.4905 13.36556261889955
Epoch: 2026-04-30T10:21Z
TLE epoch observation values (Epoch: 2026-04-30T10:21:26.616Z)
Latitude
65.66853°
Longitude
-105.94598°
Altitude
1,068.692 km
Speed
7.355 km/s
True Right ascension
17h 51m 10s
True Declination
65° 32' 40"
Sunlit
Object was in daylight at epoch
Visualization orbit readout
Latitude
Unknown
Longitude
Unknown
Altitude
Unknown
Speed
Unknown
Apparent Right ascension
Unknown
Apparent Declination
Unknown
Sunlit
N/A
Visualization observer readout
Local Sidereal Time
16:48:38
Azimuth
Unknown
Elevation
Unknown
Doppler factor
Unknown
Orbital elements
Apogee altitude
1,185.911 km
Perigee altitude
1,052.509 km
Semi-major axis
7,497.347 km
Eccentricity
0.0089
Inclination
88.5604°
RAAN
264.6236°
Arg. of periapsis
51.8967°
True anomaly
13.73093°
Mean anomaly
13.4905°
Eccentric anomaly
13.61045°
Mean motion
3.34335 °/min
Orbital period
107.68 mins
BSTAR
0.0002093
Loading maneuver chart data...
Computing Atmospheric mass density...
Loading historical data...
Loading historical data...
Loading historical data...
Loading historical data...
Loading historical data...
Loading historical data...
Loading historical data...

Documentation

Showing up to 5 results
|